Torna al catalogo

SHUTIANYUXING-05

AttivoScienzaSSO
NORAD 67751·PAYLOAD·🇨🇳 China
Questo nome del satellite non è ancora stato confermato da fonti ufficiali.

Lanciato Feb 12, 2026 da South China Sea Launch Area

Loading…

Prossimi Passaggi (prossime 24 ore)

TLE

AggiornatoSource: Space-Track

Epoca: Sep 14, 2026, 14:59 UTC

1 67751U 26027F   26257.62497511  .00004445  00000-0  25495-3 0  9995
2 67751  97.5186  23.7190 0010298 159.4274 200.7374 15.13036076 32435

Traccia SHUTIANYUXING-05 in tempo reale con AllMySat

Download on the App Store